| time (UTC) | temp F | wind direction | speed MPH | gust MPH | rain 1hr in | rain 24hr in | rain mn in | humidity % | barometer mb |
| 20260503232122 | 81 | 279 | 4.0 | 14.0 | 0.00 | 0.00 | 0.00 | 35 | 1010.0 |
| 20260503231122 | 81 | 259 | 5.0 | 18.0 | 0.00 | 0.00 | 0.00 | 36 | 1010.2 |
| 20260503230145 | 81 | 277 | 5.0 | 14.0 | 0.00 | 0.00 | 0.00 | 36 | 1010.3 |
| 20260503225124 | 81 | 270 | 4.0 | 13.0 | 0.00 | 0.00 | 0.00 | 36 | 1010.3 |
| 20260503224122 | 81 | 272 | 4.0 | 14.0 | 0.00 | 0.00 | 0.00 | 37 | 1010.4 |
| 20260503223145 | 81 | 280 | 5.0 | 14.0 | 0.00 | 0.00 | 0.00 | 37 | 1010.5 |
| 20260503222124 | 80 | 272 | 4.0 | 13.0 | 0.00 | 0.00 | 0.00 | 38 | 1010.8 |
| 20260503221124 | 80 | 269 | 4.0 | 14.0 | 0.00 | 0.00 | 0.00 | 38 | 1010.8 |
| 20260503220143 | 80 | 275 | 5.0 | 14.0 | 0.00 | 0.00 | 0.00 | 38 | 1011.0 |
| 20260503215122 | 80 | 275 | 5.0 | 16.0 | 0.00 | 0.00 | 0.00 | 38 | 1011.2 |
| 20260503214122 | 79 | 274 | 4.0 | 16.0 | 0.00 | 0.00 | 0.00 | 40 | 1011.3 |
| 20260503213124 | 79 | 272 | 5.0 | 16.0 | 0.00 | 0.00 | 0.00 | 40 | 1011.3 |
| 20260503212124 | 79 | 270 | 4.0 | 18.0 | 0.00 | 0.00 | 0.00 | 41 | 1011.3 |
| 20260503211122 | 79 | 259 | 5.0 | 18.0 | 0.00 | 0.00 | 0.00 | 43 | 1011.4 |
| 20260503210124 | 79 | 269 | 3.0 | 13.0 | 0.00 | 0.00 | 0.00 | 44 | 1011.6 |
| 20260503205122 | 78 | 278 | 4.0 | 18.0 | 0.00 | 0.00 | 0.00 | 45 | 1011.8 |
| 20260503204123 | 78 | 275 | 3.0 | 13.0 | 0.00 | 0.00 | 0.00 | 45 | 1011.9 |
| 20260503203124 | 78 | 270 | 5.0 | 16.0 | 0.00 | 0.00 | 0.00 | 45 | 1012.0 |
| 20260503202122 | 77 | 262 | 5.0 | 16.0 | 0.00 | 0.00 | 0.00 | 46 | 1012.0 |
| 20260503201124 | 77 | 260 | 4.0 | 14.0 | 0.00 | 0.00 | 0.00 | 47 | 1012.2 |
| 20260503200123 | 77 | 251 | 3.0 | 11.0 | 0.00 | 0.00 | 0.00 | 48 | 1012.3 |
| 20260503195124 | 77 | 264 | 3.0 | 16.0 | 0.00 | 0.00 | 0.00 | 49 | 1012.4 |
| 20260503194122 | 76 | 262 | 3.0 | 13.0 | 0.00 | 0.00 | 0.00 | 48 | 1012.5 |
| 20260503193124 | 76 | 269 | 2.0 | 11.0 | 0.00 | 0.00 | 0.00 | 46 | 1012.7 |
| 20260503192143 | 75 | 282 | 2.0 | 11.0 | 0.00 | 0.00 | 0.00 | 45 | 1012.8 |
| 20260503191122 | 74 | 297 | 3.0 | 10.0 | 0.00 | 0.00 | 0.00 | 47 | 1012.9 |
| 20260503190124 | 74 | 300 | 3.0 | 11.0 | 0.00 | 0.00 | 0.00 | 46 | 1012.9 |
| 20260503185122 | 74 | 301 | 3.0 | 11.0 | 0.00 | 0.00 | 0.00 | 47 | 1013.0 |
| 20260503184122 | 73 | 313 | 3.0 | 13.0 | 0.00 | 0.00 | 0.00 | 48 | 1013.1 |
| 20260503183122 | 73 | 304 | 3.0 | 8.0 | 0.00 | 0.00 | 0.00 | 51 | 1013.2 |
| 20260503182128 | 72 | 317 | 2.0 | 11.0 | 0.00 | 0.00 | 0.00 | 54 | 1013.3 |
| 20260503182124 | 72 | 316 | 2.0 | 11.0 | 0.00 | 0.00 | 0.00 | 54 | 1013.3 |
| 20260503181144 | 70 | 14 | 3.0 | 13.0 | 0.00 | 0.00 | 0.00 | 55 | 1013.4 |
| 20260503180124 | 69 | 26 | 4.0 | 8.0 | 0.00 | 0.00 | 0.00 | 55 | 1013.4 |
| 20260503175122 | 69 | 19 | 3.0 | 8.0 | 0.00 | 0.00 | 0.00 | 53 | 1013.5 |
| 20260503174124 | 69 | 18 | 2.0 | 8.0 | 0.00 | 0.00 | 0.00 | 56 | 1013.6 |
| 20260503173122 | 68 | 33 | 1.0 | 6.0 | 0.00 | 0.00 | 0.00 | 52 | 1013.7 |
| 20260503172124 | 67 | 21 | 1.0 | 5.0 | 0.00 | 0.00 | 0.00 | 53 | 1013.7 |
| 20260503171122 | 67 | 29 | 2.0 | 6.0 | 0.00 | 0.00 | 0.00 | 56 | 1013.8 |
| 20260503170122 | 67 | 38 | 1.0 | 5.0 | 0.00 | 0.00 | 0.00 | 53 | 1013.9 |
| 20260503160122 | 62 | 15 | 1.0 | 3.0 | 0.00 | 0.00 | 0.00 | 64 | 1014.6 |
| 20260503150143 | 60 | 241 | 1.0 | 3.0 | 0.00 | 0.00 | 0.00 | 73 | 1014.7 |
| 20260503140122 | 56 | 0 | 0.0 | 0.0 | 0.00 | 0.00 | 0.00 | 79 | 1014.5 |
| 20260503131145 | 53 | 0 | 0.0 | 0.0 | 0.00 | 0.00 | 0.00 | 83 | 1014.3 |
| 20260503130122 | 53 | 0 | 0.0 | 0.0 | 0.00 | 0.00 | 0.00 | 83 | 1014.4 |
| 20260503120122 | 54 | 0 | 0.0 | 0.0 | 0.00 | 0.00 | 0.00 | 82 | 1014.2 |
| 20260503110122 | 54 | 0 | 0.0 | 0.0 | 0.00 | 0.00 | 0.00 | 80 | 1014.4 |
| 20260503100124 | 56 | 219 | 1.0 | 3.0 | 0.00 | 0.00 | 0.00 | 77 | 1014.2 |
| 20260503090122 | 57 | 211 | 0.0 | 2.0 | 0.00 | 0.00 | 0.00 | 75 | 1014.2 |
| 20260503081124 | 58 | 0 | 0.0 | 0.0 | 0.00 | 0.00 | 0.00 | 73 | 1014.1 |
| 20260503080124 | 58 | 0 | 0.0 | 0.0 | 0.00 | 0.00 | 0.00 | 73 | 1014.2 |
| 20260503072122 | 59 | 208 | 0.0 | 2.0 | 0.00 | 0.00 | 0.00 | 72 | 1014.0 |
| 20260503071124 | 60 | 0 | 0.0 | 0.0 | 0.00 | 0.00 | 0.00 | 72 | 1013.9 |
| 20260503070122 | 60 | 0 | 0.0 | 0.0 | 0.00 | 0.00 | 0.00 | 72 | 1013.9 |
| 20260503060122 | 62 | 0 | 0.0 | 0.0 | 0.00 | 0.00 | 0.00 | 68 | 1013.5 |
| 20260503055124 | 62 | 0 | 0.0 | 0.0 | 0.00 | 0.00 | 0.00 | 68 | 1013.5 |
| 20260503054122 | 62 | 0 | 0.0 | 0.0 | 0.00 | 0.00 | 0.00 | 67 | 1013.4 |
| 20260503053123 | 63 | 1 | 0.0 | 5.0 | 0.00 | 0.00 | 0.00 | 66 | 1013.4 |
| 20260503052124 | 64 | 65 | 0.0 | 2.0 | 0.00 | 0.00 | 0.00 | 64 | 1013.4 |
| 20260503051122 | 64 | 208 | 0.0 | 3.0 | 0.00 | 0.00 | 0.00 | 63 | 1013.4 |
| 20260503050124 | 65 | 0 | 0.0 | 0.0 | 0.00 | 0.00 | 0.00 | 62 | 1013.4 |
| 20260503045143 | 66 | 0 | 0.0 | 0.0 | 0.00 | 0.00 | 0.00 | 61 | 1013.3 |
| 20260503044143 | 66 | 222 | 0.0 | 3.0 | 0.00 | 0.00 | 0.00 | 59 | 1013.3 |
| 20260503043122 | 67 | 223 | 0.0 | 2.0 | 0.00 | 0.00 | 0.00 | 57 | 1013.3 |
| 20260503042122 | 68 | 0 | 0.0 | 2.0 | 0.00 | 0.00 | 0.00 | 55 | 1013.2 |
| 20260503041143 | 68 | 0 | 0.0 | 2.0 | 0.00 | 0.00 | 0.00 | 54 | 1013.0 |
| 20260503040122 | 69 | 232 | 0.0 | 2.0 | 0.00 | 0.00 | 0.00 | 53 | 1013.0 |
| 20260503035122 | 70 | 289 | 1.0 | 5.0 | 0.00 | 0.00 | 0.00 | 51 | 1012.8 |
| 20260503034122 | 70 | 289 | 1.0 | 10.0 | 0.00 | 0.00 | 0.00 | 50 | 1012.7 |
| 20260503033124 | 71 | 274 | 1.0 | 6.0 | 0.00 | 0.00 | 0.00 | 49 | 1012.7 |
| 20260503032122 | 71 | 230 | 1.0 | 5.0 | 0.00 | 0.00 | 0.00 | 49 | 1012.6 |
| 20260503031123 | 72 | 257 | 1.0 | 8.0 | 0.00 | 0.00 | 0.00 | 48 | 1012.6 |
| 20260503030124 | 73 | 298 | 2.0 | 6.0 | 0.00 | 0.00 | 0.00 | 47 | 1012.6 |
| 20260503025122 | 73 | 297 | 2.0 | 8.0 | 0.00 | 0.00 | 0.00 | 46 | 1012.4 |
| 20260503024145 | 74 | 283 | 1.0 | 5.0 | 0.00 | 0.00 | 0.00 | 46 | 1012.3 |
| 20260503023122 | 75 | 274 | 1.0 | 6.0 | 0.00 | 0.00 | 0.00 | 45 | 1012.4 |
| 20260503022124 | 76 | 283 | 1.0 | 5.0 | 0.00 | 0.00 | 0.00 | 45 | 1012.4 |
| 20260503021124 | 76 | 278 | 2.0 | 6.0 | 0.00 | 0.00 | 0.00 | 45 | 1012.5 |
| 20260503020122 | 76 | 286 | 2.0 | 11.0 | 0.00 | 0.00 | 0.00 | 44 | 1012.5 |
| 20260503015122 | 76 | 281 | 2.0 | 10.0 | 0.00 | 0.00 | 0.00 | 44 | 1012.6 |
| 20260503014122 | 77 | 269 | 3.0 | 11.0 | 0.00 | 0.00 | 0.00 | 42 | 1012.6 |
| 20260503013122 | 78 | 263 | 3.0 | 10.0 | 0.00 | 0.00 | 0.00 | 41 | 1012.7 |
| 20260503012122 | 79 | 276 | 3.0 | 11.0 | 0.00 | 0.00 | 0.00 | 40 | 1012.7 |
| 20260503011123 | 79 | 288 | 3.0 | 10.0 | 0.00 | 0.00 | 0.00 | 40 | 1012.7 |
| 20260503010143 | 80 | 301 | 2.0 | 11.0 | 0.00 | 0.00 | 0.00 | 39 | 1012.7 |
| 20260503005145 | 79 | 320 | 3.0 | 8.0 | 0.00 | 0.00 | 0.00 | 39 | 1012.8 |
| 20260503004122 | 79 | 335 | 3.0 | 13.0 | 0.00 | 0.00 | 0.00 | 39 | 1012.8 |
| 20260503003122 | 79 | 324 | 4.0 | 13.0 | 0.00 | 0.00 | 0.00 | 39 | 1012.8 |
| 20260503002148 | 79 | 325 | 3.0 | 13.0 | 0.00 | 0.00 | 0.00 | 39 | 1013.0 |
| 20260503002144 | 79 | 323 | 3.0 | 13.0 | 0.00 | 0.00 | 0.00 | 40 | 1013.0 |
| 20260503001123 | 80 | 302 | 4.0 | 13.0 | 0.00 | 0.00 | 0.00 | 40 | 1013.1 |
| 20260503000124 | 80 | 321 | 3.0 | 10.0 | 0.00 | 0.00 | 0.00 | 41 | 1013.1 |
| 20260502235122 | 79 | 305 | 3.0 | 11.0 | 0.00 | 0.00 | 0.00 | 41 | 1013.2 |
| 20260502234122 | 79 | 316 | 2.0 | 8.0 | 0.00 | 0.00 | 0.00 | 44 | 1013.3 |
| 20260502233143 | 78 | 298 | 3.0 | 13.0 | 0.00 | 0.00 | 0.00 | 44 | 1013.4 |